[[{"header":{"parameterUnit":"m.s-1","parameterCategory":2,"la1":30.2991,"la2":30.254,"lo1":-89.0895,"lo2":-89.0444,"dy":0.0017,"dx":0.0017,"nx":28,"ny":28,"refTime":"2024-07-06T03:00:00:Z","depth":"0","parameterNumber":2,"parameterNumberName":"U-component_of_CURRENTS"},"data":[0,0,0,0,0,0,0,0,0,0,0,0,0,0,0,0,0,0,0,0,0,0,0,0,0,0,0,0,0,0,0,0,0,0,0,0,0,0,0,0,0,0,0,0,0,0,0,0,0,0,0,0,0,0,0,0,0,0,0.3238,0.3238,0,0.3254,0.3253,0.3253,0.3228,0.3228,0.3228,0.3227,0.3193,0.3192,0.3192,0,0,0,0,0,0,0,0,0,0,0,0,0,0.323,0.323,0.3238,0.3238,0.3239,0.3254,0.3253,0.3253,0.3228,0.3228,0.3227,0.3227,0.3193,0.3192,0.3192,0,0,0,0,0,0,0,0,0,0,0,0,0,0.3233,0.323,0.3237,0.3233,0.3233,0.3254,0.3253,0.3253,0.3228,0.3228,0.3227,0.3227,0.3193,0.3192,0.3192,0.3196,0,0,0.3189,0.3188,0,0,0,0,0,0,0,0,0.3233,0.3232,0.3233,0.3233,0.3234,0.3244,0.3239,0.3233,0.3228,0.3224,0.3227,0.3227,0.3209,0.3207,0.3204,0.3194,0.3192,0.3189,0.3188,0.3188,0.3187,0,0,0,0,0,0,0,0.3233,0.3232,0.3238,0.3234,0.3234,0.3246,0.3244,0.3237,0.3214,0.3224,0.3224,0.3235,0.3208,0.3205,0.3203,0.3192,0.3189,0.3188,0.3187,0.3187,0.3262,0.3265,0,0,0,0,0,0,0.3241,0.3232,0.3238,0.3239,0.3239,0.3247,0.3245,0.3236,0.3215,0.3213,0.3236,0.3234,0.3206,0.3204,0.3201,0.3265,0.3188,0.3187,0.3186,0.326,0.3263,0.3266,0,0,0,0,0,0,0.324,0.324,0.3237,0.3242,0.3243,0.3247,0.3238,0.3237,0.3239,0.3225,0.3221,0.3241,0.3206,0.3203,0.3224,0.3261,0.3186,0.3186,0.3257,0.3261,0.3264,0.3353,0,0,0,0,0,0,0.3239,0.3239,0.3239,0.3241,0.3243,0.3267,0.3239,0.3238,0.325,0.3248,0.3228,0.3224,0.3205,0.3226,0.3223,0.3258,0.3185,0.3254,0.3259,0.3263,0.3347,0.336,0.3371,0,0,0,0,0,0.3238,0.3239,0.3238,0.324,0.324,0.3269,0.3271,0.3269,0.3251,0.3265,0.326,0.3225,0.3254,0.3227,0.3223,0.3259,0.3251,0.3257,0.3263,0.3342,0.3357,0.337,0,0,0,0,0,0,0.3216,0.3237,0.3236,0.3236,0.3262,0.3267,0.3278,0.3276,0.3281,0.3276,0.3251,0.3248,0.3289,0.3264,0.3234,0.3299,0.325,0.3255,0.3311,0.3325,0.3337,0.3344,0.3184,0,0,0,0,0,0.3218,0.3236,0.3252,0.3258,0.3267,0.3273,0.3284,0.3288,0.3295,0.3295,0.3289,0.3289,0.331,0.3308,0.3321,0.3341,0.3349,0.3367,0.3378,0.3388,0.3395,0.3463,0.3481,0.3285,0.3284,0.3284,0,0,0.3209,0.3228,0.3234,0.3259,0.3268,0.3306,0.3276,0.3301,0.3344,0.3292,0.3336,0.3333,0.333,0.337,0.3384,0.3349,0.345,0.3396,0.3404,0.3405,0.3471,0.349,0.3507,0.3288,0.3288,0.3287,0,0,0.3211,0.3217,0.3234,0.327,0.3308,0.333,0.3342,0.3361,0.3378,0.3424,0.3409,0.3434,0.3446,0.3461,0.3467,0.355,0.3521,0.3545,0.3593,0.366,0.3677,0.3691,0.3729,0.3746,0.3537,0.3538,0.3538,0,0.3198,0.3225,0.3246,0.3284,0.3327,0.3346,0.3388,0.3418,0.345,0.3465,0.3456,0.3496,0.3501,0.3547,0.3584,0.3578,0.3593,0.3536,0.3675,0.369,0.3703,0.3738,0.3756,0.3543,0.3542,0.3542,0.3541,0,0.322,0.3255,0.3272,0.3338,0.3389,0.343,0.349,0.3528,0.3553,0.3572,0.3624,0.3632,0.3645,0.3663,0.3651,0.3737,0.3711,0.3693,0.3636,0.3729,0.376,0.3777,0.355,0.3548,0.3547,0.3545,0,0,0.3148,0.3264,0.3268,0.3324,0.3426,0.3467,0.3556,0.3627,0.3662,0.3701,0.3738,0.3798,0.3771,0.3778,0.3761,0.3817,0.394,0.3793,0.3795,0.3825,0.407,0.3827,0.3822,0.3941,0.3944,0.3947,0.4054,0,0.3155,0.3243,0.3308,0.3413,0.3469,0.3547,0.3627,0.37,0.3747,0.3788,0.3805,0.3836,0.3823,0.382,0.3882,0.3923,0.3988,0.3911,0.3981,0.3983,0.3751,0.3835,0.3553,0.3604,0.407,0.4073,0.4075,0,0.3146,0.3223,0.3315,0.3465,0.3491,0.3556,0.3681,0.3755,0.3825,0.3853,0.388,0.388,0.3952,0.3929,0.406,0.4006,0.4056,0.409,0.4094,0.3844,0.3771,0.3588,0.3617,0.354,0.4101,0.4098,0.4097,0,0.3096,0.3228,0.3309,0.3362,0.3522,0.357,0.365,0.3749,0.3803,0.3875,0.3898,0.3965,0.399,0.408,0.4127,0.4116,0.4255,0.4249,0.4081,0.4065,0.3824,0.3777,0.3774,0.437,0.437,0.4369,0.4369,0,0.309,0.3158,0.3282,0.3332,0.3428,0.3541,0.3622,0.3708,0.3787,0.3826,0.3903,0.3922,0.4036,0.4097,0.4158,0.414,0.4286,0.4101,0.408,0.3843,0.3799,0.3715,0.3699,0.4373,0.4372,0.4372,0.4371,0,0.3035,0.3117,0.3216,0.3361,0.3407,0.3469,0.3603,0.3651,0.3742,0.3793,0.3813,0.392,0.3982,0.4058,0.419,0.4143,0.4031,0.4144,0.3827,0.3763,0.3462,0.346,0.3316,0.3233,0.3976,0.3971,0.3966,0,0.3019,0.3059,0.3206,0.3256,0.3319,0.3417,0.348,0.3607,0.3654,0.3764,0.3777,0.3847,0.3836,0.3901,0.3849,0.3865,0.385,0.3609,0.3528,0.3401,0.339,0.3325,0.3265,0.3278,0.3268,0.326,0.3254,0,0.2989,0.3026,0.3106,0.3207,0.3277,0.3356,0.3446,0.3471,0.359,0.3617,0.3627,0.3616,0.3606,0.3436,0.3415,0.3404,0.336,0.3437,0.342,0.2918,0.2739,0.266,0.3258,0.3182,0.3189,0.3195,0.3198,0.3201,0.2947,0.298,0.3066,0.3157,0.3235,0.3271,0.3247,0.3316,0.3335,0.3299,0.341,0.3272,0.3124,0.3009,0.2981,0.2717,0.2857,0.2604,0.2644,0.2617,0.2411,0.2805,0.2615,0.2619,0.2622,0.2625,0.2628,0,0.2891,0.2943,0.3017,0.3099,0.3114,0.3182,0.3205,0.3109,0.3029,0.3023,0.2967,0.2696,0.2484,0.2384,0.2113,0.1965,0.1948,0.1921,0.1832,0.1845,0.2291,0.213,0.1682,0.1682,0.1682,0.1682,0.1682,0.1682,0.287,0.2901,0.2939,0.2951,0.2978,0.2881,0.2826,0.2701,0.2628,0.2377,0.2171,0.212,0.2,0.176,0.1523,0.1488,0.1463,0.1272,0.1452,0.1817,0.1887,0.1954,0.1801,0.1291,0.1291,0.0871,0.0867,0.0865]},{"header":{"parameterUnit":"m.s-1","parameterCategory":2,"la1":30.2991,"la2":30.254,"lo1":-89.0895,"lo2":-89.0444,"dy":0.0017,"dx":0.0017,"nx":28,"ny":28,"refTime":"2024-07-06T03:00:00:Z","depth":"0","parameterNumber":3,"parameterNumberName":"V-component_of_CURRENTS"},"data":[0,0,0,0,0,0,0,0,0,0,0,0,0,0,0,0,0,0,0,0,0,0,0,0,0,0,0,0,0,0,0,0,0,0,0,0,0,0,0,0,0,0,0,0,0,0,0,0,0,0,0,0,0,0,0,0,0,0,-0.0405,-0.0405,0,-0.0427,-0.0427,-0.0427,-0.043,-0.043,-0.043,-0.043,-0.0479,-0.048,-0.0482,0,0,0,0,0,0,0,0,0,0,0,0,0,-0.0365,-0.0366,-0.0405,-0.0405,-0.0406,-0.0427,-0.0427,-0.0427,-0.043,-0.043,-0.043,-0.043,-0.0479,-0.048,-0.0482,0,0,0,0,0,0,0,0,0,0,0,0,0,-0.0383,-0.0366,-0.0405,-0.0411,-0.0412,-0.0427,-0.0427,-0.0427,-0.043,-0.043,-0.043,-0.043,-0.0478,-0.048,-0.0482,-0.0495,0,0,-0.0488,-0.0489,0,0,0,0,0,0,0,0,-0.0382,-0.0384,-0.041,-0.0411,-0.0412,-0.0428,-0.0431,-0.0452,-0.043,-0.0421,-0.043,-0.043,-0.0466,-0.0469,-0.047,-0.0497,-0.0499,-0.0488,-0.0489,-0.049,-0.0491,0,0,0,0,0,0,0,-0.038,-0.0383,-0.0412,-0.0411,-0.0412,-0.0413,-0.0415,-0.0435,-0.0442,-0.0422,-0.0423,-0.0429,-0.0466,-0.0468,-0.0471,-0.05,-0.0488,-0.049,-0.0491,-0.0492,-0.0581,-0.0582,0,0,0,0,0,0,-0.0382,-0.0382,-0.0411,-0.0412,-0.0399,-0.0414,-0.0416,-0.0421,-0.0442,-0.0445,-0.0429,-0.0429,-0.0464,-0.0469,-0.0473,-0.0511,-0.049,-0.0492,-0.0493,-0.058,-0.0581,-0.0583,0,0,0,0,0,0,-0.0381,-0.0384,-0.041,-0.0399,-0.0403,-0.0415,-0.042,-0.0421,-0.0422,-0.0447,-0.045,-0.0427,-0.0464,-0.047,-0.0498,-0.0512,-0.0493,-0.0495,-0.0578,-0.058,-0.0582,-0.0573,0,0,0,0,0,0,-0.038,-0.0384,-0.0388,-0.0399,-0.0404,-0.0415,-0.042,-0.0422,-0.0426,-0.0426,-0.0447,-0.0451,-0.0465,-0.0495,-0.05,-0.0514,-0.0496,-0.0577,-0.0579,-0.0581,-0.0572,-0.0575,-0.0577,0,0,0,0,0,-0.0378,-0.0381,-0.0388,-0.0392,-0.0409,-0.0415,-0.0417,-0.0425,-0.0426,-0.0424,-0.0448,-0.045,-0.0513,-0.0498,-0.0503,-0.0518,-0.0576,-0.0579,-0.0581,-0.0571,-0.0574,-0.0577,0,0,0,0,0,0,-0.0358,-0.0382,-0.039,-0.0398,-0.0406,-0.0417,-0.0418,-0.0423,-0.0438,-0.044,-0.0461,-0.0468,-0.05,-0.0513,-0.0495,-0.0553,-0.0547,-0.0551,-0.0538,-0.0541,-0.0543,-0.0491,-0.0498,0,0,0,0,0,-0.0359,-0.0372,-0.0387,-0.0393,-0.0396,-0.0407,-0.0411,-0.0415,-0.0431,-0.0436,-0.0457,-0.0485,-0.0516,-0.0529,-0.0557,-0.0582,-0.0528,-0.0599,-0.0601,-0.0603,-0.0567,-0.0487,-0.0477,-0.0591,-0.0591,-0.0591,0,0,-0.0352,-0.0368,-0.0375,-0.0391,-0.0397,-0.0417,-0.0408,-0.0411,-0.0434,-0.0441,-0.0477,-0.0492,-0.0526,-0.056,-0.0576,-0.057,-0.0549,-0.0606,-0.0607,-0.0569,-0.0488,-0.0476,-0.0465,-0.0593,-0.0593,-0.0592,0,0,-0.0338,-0.0359,-0.0359,-0.0375,-0.0389,-0.0413,-0.0414,-0.0428,-0.0436,-0.0468,-0.0486,-0.0495,-0.0554,-0.0564,-0.0583,-0.0611,-0.0564,-0.064,-0.0605,-0.0529,-0.0517,-0.0506,-0.0437,-0.042,-0.0639,-0.0639,-0.0639,0,-0.0326,-0.034,-0.0358,-0.0367,-0.0391,-0.0415,-0.0427,-0.0448,-0.0473,-0.0466,-0.0483,-0.0512,-0.055,-0.0558,-0.0581,-0.0612,-0.0556,-0.0591,-0.0526,-0.0513,-0.0502,-0.0434,-0.0414,-0.0639,-0.0639,-0.0639,-0.0639,0,-0.0315,-0.0334,-0.0336,-0.0375,-0.0401,-0.0415,-0.0456,-0.0475,-0.0498,-0.0497,-0.0494,-0.0518,-0.0517,-0.0554,-0.0584,-0.0537,-0.0521,-0.0535,-0.0504,-0.0488,-0.042,-0.04,-0.0639,-0.0639,-0.0639,-0.0639,0,0,-0.0265,-0.0318,-0.0318,-0.0337,-0.0409,-0.042,-0.0475,-0.0497,-0.0482,-0.0504,-0.0453,-0.0522,-0.0481,-0.0496,-0.0515,-0.0463,-0.0368,-0.0464,-0.046,-0.0369,-0.0184,-0.0217,-0.0198,-0.0357,-0.0353,-0.0351,-0.0173,0,-0.0249,-0.0267,-0.0311,-0.0352,-0.0372,-0.0432,-0.0469,-0.0492,-0.0499,-0.0456,-0.0443,-0.0411,-0.0478,-0.0446,-0.0411,-0.0364,-0.0311,-0.0414,-0.0234,-0.0229,-0.0237,-0.0175,-0.019,-0.0036,-0.0153,-0.0149,-0.0147,0,-0.0224,-0.0246,-0.0271,-0.0331,-0.034,-0.0371,-0.0407,-0.0433,-0.0402,-0.0386,-0.0337,-0.0308,-0.0247,-0.0291,-0.0179,-0.0233,-0.0206,-0.0174,-0.0167,-0.0174,-0.0223,-0.0071,0.0006,-0.0057,-0.0115,-0.0118,-0.012,0,-0.0177,-0.0221,-0.0243,-0.0268,-0.0337,-0.0347,-0.0378,-0.0387,-0.0354,-0.0296,-0.0216,-0.0172,-0.0075,-0.0046,-0.0021,-0.0074,0.0136,0.0067,0.0065,0.0063,0.0099,0.0093,0.0166,0.0169,0.0168,0.0168,0.0167,0,-0.016,-0.0176,-0.0209,-0.0222,-0.0221,-0.0284,-0.0252,-0.0275,-0.0215,-0.0105,-0.0136,-0.0004,0.0003,0.0103,0.0073,0.015,0.0209,0.0114,0.0123,0.0094,0.0086,0.007,0.0019,0.0174,0.0173,0.0172,0.0171,0,-0.0116,-0.015,-0.0156,-0.0191,-0.0198,-0.0183,-0.0167,-0.0113,-0.0088,0.007,0.0114,0.0196,0.0314,0.0299,0.0392,0.0311,0.0322,0.035,0.0305,0.0304,0.019,0.0139,0.0262,0.0238,0.0386,0.0387,0.0387,0,-0.0099,-0.0095,-0.01,-0.0076,-0.0088,-0.0071,-0.0042,-0.0044,0.0045,0.0213,0.0335,0.0473,0.0598,0.0676,0.0562,0.0524,0.0425,0.0448,0.0316,0.0223,0.0175,0.0131,0.0098,0.037,0.0371,0.0371,0.0371,0,-0.0046,-0.0034,-0.0027,0.0026,0.0063,0.0102,0.0163,0.0254,0.032,0.0465,0.0695,0.0809,0.0853,0.0824,0.0703,0.0628,0.0384,0.0448,0.0391,0.0214,0.0142,0.0109,0.0201,0.0373,0.0373,0.0372,0.0372,0.0372,0.0025,0.0061,0.0098,0.0145,0.0199,0.0297,0.0371,0.0479,0.0648,0.0884,0.0965,0.1135,0.1005,0.0842,0.0729,0.0448,0.0445,0.034,0.0305,0.0285,0.0203,0.0283,0.0421,0.0421,0.0421,0.0421,0.0421,0,0.012,0.0154,0.0213,0.0289,0.0385,0.0375,0.0524,0.0627,0.0859,0.1055,0.1242,0.1251,0.11,0.0866,0.051,0.0336,0.0245,0.0237,0.0179,0.0164,0.0291,0.0224,0.0277,0.0277,0.0277,0.0277,0.0277,0.0277,0.0175,0.0252,0.0274,0.044,0.0507,0.0644,0.0742,0.0896,0.1039,0.1268,0.1351,0.1389,0.1195,0.0664,0.031,0.0218,0.0101,0.0069,0.0035,0.0098,0.0104,0.011,0.0036,0.0048,0.0048,-0.0088,-0.009,-0.0091]}],[{"header":{"parameterUnit":"m.s-1","parameterCategory":2,"la1":30.2991,"la2":30.254,"lo1":-89.0895,"lo2":-89.0444,"dy":0.0017,"dx":0.0017,"nx":28,"ny":28,"refTime":"2024-07-06T03:00:00:Z","depth":"2","parameterNumber":2,"parameterNumberName":"U-component_of_CURRENTS"},"data":[0,0,0,0,0,0,0,0,0,0,0,0,0,0,0,0,0,0,0,0,0,0,0,0,0,0,0,0,0,0,0,0,0,0,0,0,0,0,0,0,0,0,0,0,0,0,0,0,0,0,0,0,0,0,0,0,0,0,0.2185,0.2185,0,0.2141,0.214,0.214,0.2162,0.2163,0.2164,0.2165,0.2184,0.2184,0.2183,0,0,0,0,0,0,0,0,0,0,0,0,0,0.2187,0.2188,0.2185,0.2185,0.2184,0.2141,0.214,0.214,0.2162,0.2163,0.2165,0.2166,0.2184,0.2184,0.2183,0,0,0,0,0,0,0,0,0,0,0,0,0,0.217,0.2188,0.2185,0.2189,0.2189,0.2141,0.214,0.214,0.2162,0.2163,0.2165,0.2166,0.2184,0.2184,0.2183,0.2147,0,0,0.2181,0.2181,0,0,0,0,0,0,0,0,0.2171,0.217,0.2189,0.2189,0.2188,0.2157,0.2148,0.2145,0.2161,0.2173,0.2165,0.2167,0.2179,0.2179,0.2168,0.2148,0.2149,0.2181,0.218,0.218,0.218,0,0,0,0,0,0,0,0.2173,0.2172,0.2169,0.2188,0.2188,0.2157,0.2158,0.2146,0.217,0.2172,0.2174,0.2166,0.218,0.2168,0.2169,0.2149,0.2181,0.218,0.218,0.2179,0.22,0.2201,0,0,0,0,0,0,0.2179,0.2174,0.217,0.2167,0.2182,0.2156,0.2157,0.2167,0.2169,0.217,0.2165,0.2167,0.2169,0.2169,0.2169,0.2266,0.218,0.2179,0.2179,0.22,0.2201,0.2202,0,0,0,0,0,0,0.218,0.218,0.2172,0.2167,0.2164,0.2155,0.2166,0.2165,0.2175,0.2162,0.2165,0.2178,0.217,0.217,0.2193,0.2262,0.2179,0.2178,0.2198,0.22,0.2201,0.237,0,0,0,0,0,0,0.218,0.2181,0.2194,0.2168,0.2165,0.2169,0.2164,0.2163,0.2166,0.217,0.2174,0.2176,0.2171,0.2195,0.2193,0.2259,0.2178,0.2197,0.2199,0.2201,0.2363,0.2377,0.2389,0,0,0,0,0,0.2181,0.2186,0.2196,0.2195,0.2183,0.2169,0.2165,0.2163,0.2165,0.2177,0.2187,0.2177,0.2205,0.2195,0.2192,0.2261,0.2196,0.2198,0.2201,0.2357,0.2374,0.2388,0,0,0,0,0,0,0.2188,0.2188,0.2198,0.2203,0.2201,0.2173,0.2178,0.2171,0.2182,0.2197,0.2185,0.2188,0.2234,0.2205,0.2194,0.2265,0.22,0.2202,0.232,0.2335,0.2348,0.2356,0.2177,0,0,0,0,0,0.2197,0.2195,0.2201,0.2197,0.2214,0.2199,0.2194,0.2197,0.2196,0.2203,0.2202,0.2208,0.2233,0.2252,0.2249,0.2284,0.2268,0.2323,0.2336,0.2347,0.2349,0.2417,0.2438,0.2209,0.2209,0.2209,0,0,0.2193,0.2188,0.2189,0.2197,0.22,0.2196,0.2202,0.2209,0.2212,0.2202,0.2219,0.2246,0.2246,0.23,0.2318,0.2295,0.2395,0.235,0.2361,0.2355,0.2422,0.2445,0.2465,0.2211,0.221,0.221,0,0,0.2171,0.2197,0.22,0.2195,0.2206,0.2204,0.2213,0.2215,0.2245,0.2257,0.2273,0.2344,0.2332,0.2387,0.2404,0.2474,0.2453,0.2473,0.2567,0.2635,0.2656,0.2673,0.2658,0.2673,0.2493,0.2494,0.2494,0,0.2171,0.2175,0.2196,0.2188,0.2204,0.2209,0.2232,0.2231,0.2234,0.2294,0.2278,0.2371,0.2377,0.2496,0.2533,0.2512,0.2515,0.2522,0.2658,0.2675,0.2691,0.267,0.2685,0.2502,0.2501,0.25,0.2499,0,0.2149,0.2154,0.2155,0.2158,0.2184,0.2192,0.2224,0.2272,0.2308,0.2316,0.2446,0.2484,0.2552,0.2583,0.2581,0.2721,0.2673,0.2665,0.2633,0.2726,0.2695,0.2708,0.2514,0.2511,0.2508,0.2506,0,0,0.2153,0.2149,0.215,0.2177,0.2186,0.2215,0.2268,0.2353,0.241,0.2455,0.2563,0.2654,0.2703,0.2724,0.2772,0.2852,0.2964,0.2821,0.282,0.2827,0.3071,0.2884,0.2878,0.3005,0.3009,0.3012,0.2998,0,0.2145,0.2141,0.2157,0.218,0.2209,0.2274,0.2328,0.2404,0.2459,0.254,0.2662,0.2734,0.2742,0.2823,0.2908,0.2952,0.3008,0.2964,0.2957,0.2955,0.28,0.2891,0.2668,0.2625,0.3009,0.3011,0.3013,0,0.2134,0.2144,0.2176,0.2261,0.2296,0.2309,0.248,0.2526,0.2637,0.2718,0.2834,0.2845,0.2992,0.2969,0.3104,0.3083,0.3081,0.3102,0.3102,0.2878,0.2793,0.2596,0.2633,0.3033,0.3031,0.303,0.3029,0,0.2147,0.2175,0.2221,0.2225,0.2301,0.2394,0.2471,0.2586,0.2661,0.2818,0.2862,0.301,0.308,0.3152,0.3153,0.3148,0.3256,0.324,0.3062,0.3045,0.2821,0.2778,0.3316,0.3316,0.3316,0.3316,0.3316,0,0.2121,0.2159,0.2228,0.2232,0.2343,0.2429,0.2548,0.2666,0.279,0.2859,0.2941,0.2992,0.3134,0.3164,0.3186,0.3147,0.3274,0.3081,0.305,0.2864,0.2827,0.3151,0.3132,0.3316,0.3316,0.3316,0.3316,0,0.2099,0.2116,0.2187,0.2298,0.2326,0.2428,0.2554,0.2628,0.2769,0.2865,0.2914,0.2999,0.3045,0.3104,0.3201,0.3145,0.3158,0.3104,0.2828,0.2765,0.2884,0.2874,0.2903,0.2897,0.2892,0.2887,0.2883,0,0.2072,0.2093,0.2217,0.2247,0.2284,0.2404,0.2465,0.2626,0.2712,0.2832,0.2886,0.2908,0.2889,0.2919,0.2895,0.2877,0.3007,0.2626,0.2571,0.2884,0.2853,0.2851,0.2847,0.2333,0.2325,0.2318,0.2313,0,0.2048,0.2108,0.2154,0.223,0.2288,0.2339,0.2457,0.2489,0.2678,0.2706,0.2714,0.2665,0.2671,0.2517,0.2497,0.2469,0.2617,0.2484,0.2943,0.2454,0.2341,0.2311,0.2329,0.2255,0.2261,0.2266,0.2269,0.2271,0.2042,0.2073,0.2146,0.2185,0.2255,0.2261,0.2242,0.2333,0.236,0.2375,0.2461,0.2333,0.2338,0.2137,0.2064,0.202,0.2197,0.2111,0.2134,0.2164,0.2083,0.1966,0.179,0.1793,0.1796,0.1798,0.18,0,0.2014,0.2027,0.2082,0.2111,0.212,0.2203,0.2218,0.2142,0.207,0.2123,0.2073,0.1829,0.1687,0.1718,0.1537,0.1496,0.1542,0.1445,0.1502,0.1558,0.1608,0.1504,0.1055,0.1053,0.1051,0.1049,0,0,0.1993,0.1994,0.1983,0.1939,0.1972,0.192,0.1874,0.175,0.1741,0.1598,0.1536,0.1618,0.1653,0.1342,0.1281,0.1137,0.1355,0.1093,0.169,0.1815,0.1864,0.1984,0.1883,0,0,0,0,0]},{"header":{"parameterUnit":"m.s-1","parameterCategory":2,"la1":30.2991,"la2":30.254,"lo1":-89.0895,"lo2":-89.0444,"dy":0.0017,"dx":0.0017,"nx":28,"ny":28,"refTime":"2024-07-06T03:00:00:Z","depth":"2","parameterNumber":3,"parameterNumberName":"V-component_of_CURRENTS"},"data":[0,0,0,0,0,0,0,0,0,0,0,0,0,0,0,0,0,0,0,0,0,0,0,0,0,0,0,0,0,0,0,0,0,0,0,0,0,0,0,0,0,0,0,0,0,0,0,0,0,0,0,0,0,0,0,0,0,0,0.0126,0.0126,0,0.0132,0.0132,0.0132,0.0115,0.0114,0.0114,0.0113,0.0075,0.0075,0.0074,0,0,0,0,0,0,0,0,0,0,0,0,0,0.0128,0.0128,0.0126,0.0126,0.0126,0.0132,0.0132,0.0132,0.0115,0.0114,0.0114,0.0113,0.0075,0.0075,0.0074,0,0,0,0,0,0,0,0,0,0,0,0,0,0.013,0.0128,0.0126,0.0119,0.0118,0.0132,0.0132,0.0132,0.0115,0.0114,0.0113,0.0113,0.0075,0.0075,0.0074,0.0083,0,0,0.0071,0.0071,0,0,0,0,0,0,0,0,0.0129,0.0129,0.0119,0.0119,0.0119,0.0123,0.0119,0.0114,0.0115,0.0115,0.0113,0.0112,0.0088,0.0086,0.0088,0.0081,0.0079,0.0071,0.0071,0.007,0.007,0,0,0,0,0,0,0,0.0129,0.0129,0.0127,0.012,0.0119,0.0126,0.0125,0.0119,0.0104,0.0115,0.0114,0.0116,0.0087,0.0089,0.0087,0.0079,0.0071,0.007,0.007,0.0069,0.0074,0.0075,0,0,0,0,0,0,0.0129,0.0129,0.0127,0.0128,0.0123,0.0126,0.0125,0.0121,0.0105,0.0102,0.0117,0.0116,0.0091,0.0088,0.0086,0.0084,0.007,0.0069,0.0069,0.0073,0.0074,0.0075,0,0,0,0,0,0,0.0129,0.0129,0.0127,0.013,0.013,0.0127,0.0123,0.0122,0.012,0.0107,0.0103,0.0116,0.009,0.0087,0.0084,0.0083,0.0069,0.0068,0.0073,0.0074,0.0075,0.0088,0,0,0,0,0,0,0.0129,0.0129,0.0126,0.0129,0.013,0.0137,0.0124,0.0123,0.0123,0.0121,0.0105,0.0101,0.009,0.0085,0.0083,0.0081,0.0068,0.0072,0.0073,0.0074,0.0086,0.0089,0.0091,0,0,0,0,0,0.0129,0.0136,0.0126,0.0126,0.0126,0.0137,0.0138,0.0133,0.0124,0.0128,0.0118,0.0101,0.0091,0.0085,0.0082,0.008,0.0071,0.0073,0.0074,0.0085,0.0088,0.0091,0,0,0,0,0,0,0.0135,0.0135,0.0124,0.0128,0.013,0.0135,0.014,0.0135,0.0131,0.0128,0.011,0.0106,0.0105,0.0095,0.0089,0.0087,0.0078,0.0079,0.0088,0.0091,0.0093,0.013,0.0067,0,0,0,0,0,0.0135,0.0144,0.0137,0.0144,0.0141,0.0139,0.0142,0.014,0.0139,0.0137,0.0124,0.0115,0.0111,0.0102,0.0101,0.0096,0.0106,0.0095,0.0097,0.0099,0.0128,0.0165,0.0173,0.008,0.008,0.008,0,0,0.014,0.0143,0.0147,0.0147,0.0146,0.0165,0.0139,0.0149,0.0169,0.0133,0.0148,0.0126,0.0115,0.0114,0.0112,0.0101,0.012,0.0101,0.0102,0.0132,0.0167,0.0176,0.0185,0.0081,0.008,0.008,0,0,0.0167,0.0155,0.0169,0.0177,0.0181,0.0185,0.0187,0.0186,0.0183,0.0191,0.0173,0.0166,0.0145,0.0149,0.0145,0.0165,0.0138,0.0137,0.0169,0.0203,0.0211,0.0219,0.0197,0.0203,0.013,0.013,0.013,0,0.0172,0.0191,0.0176,0.0198,0.0212,0.0196,0.0221,0.0225,0.0225,0.0237,0.02,0.0196,0.0178,0.0195,0.0189,0.0174,0.016,0.0154,0.0207,0.0215,0.0223,0.0199,0.0205,0.0131,0.0131,0.0131,0.0131,0,0.0212,0.0229,0.0241,0.0264,0.0275,0.0298,0.0299,0.0314,0.03,0.0303,0.0306,0.0272,0.0276,0.0248,0.0217,0.025,0.0207,0.021,0.02,0.0233,0.0205,0.0211,0.0132,0.0132,0.0132,0.0131,0,0,0.0221,0.0261,0.0266,0.0297,0.0313,0.0338,0.0369,0.04,0.0447,0.0406,0.0442,0.0404,0.0374,0.0369,0.0318,0.0321,0.0334,0.0273,0.0274,0.0252,0.0355,0.0301,0.0301,0.033,0.0332,0.0334,0.0296,0,0.0256,0.0315,0.0322,0.0392,0.0421,0.0431,0.0477,0.0505,0.051,0.0542,0.0493,0.0502,0.0422,0.0405,0.0399,0.037,0.0358,0.0341,0.0328,0.0328,0.0278,0.0312,0.032,0.0286,0.0302,0.0303,0.0304,0,0.0289,0.033,0.0391,0.0475,0.0489,0.0531,0.0612,0.0651,0.0688,0.0679,0.0664,0.0629,0.0612,0.054,0.0509,0.049,0.0429,0.0389,0.0387,0.035,0.0288,0.0266,0.0297,0.0315,0.0314,0.0313,0.0312,0,0.0313,0.0385,0.0441,0.0465,0.0546,0.0587,0.0636,0.0694,0.0761,0.0761,0.0788,0.0754,0.0739,0.0683,0.0576,0.0547,0.0534,0.0499,0.0387,0.038,0.0398,0.039,0.0495,0.0495,0.0495,0.0495,0.0495,0,0.0352,0.0404,0.0462,0.0501,0.0608,0.0632,0.075,0.0785,0.0857,0.0936,0.0856,0.0881,0.0777,0.0742,0.0632,0.0528,0.0586,0.0412,0.0388,0.0395,0.0387,0.0433,0.0426,0.0494,0.0494,0.0494,0.0494,0,0.0374,0.0406,0.0488,0.0577,0.0622,0.0694,0.0842,0.0933,0.0961,0.1052,0.1051,0.1013,0.0935,0.082,0.0727,0.0611,0.0516,0.0457,0.0436,0.0411,0.0313,0.0307,0.0344,0.0342,0.0341,0.0339,0.0338,0,0.0399,0.0435,0.0547,0.0619,0.0665,0.0783,0.0884,0.0971,0.1053,0.1125,0.1162,0.1116,0.1061,0.0884,0.0696,0.0512,0.0491,0.0382,0.0347,0.0335,0.0308,0.0305,0.0301,0.035,0.0349,0.0349,0.0348,0,0.045,0.0474,0.0545,0.0682,0.079,0.0927,0.1051,0.1141,0.1223,0.1276,0.1306,0.1273,0.1082,0.0889,0.0634,0.0506,0.0414,0.0358,0.0406,0.0381,0.0338,0.0311,0.0309,0.0342,0.0342,0.0343,0.0343,0.0343,0.0493,0.0548,0.0633,0.0768,0.0896,0.1033,0.1123,0.1224,0.1342,0.1381,0.1375,0.1282,0.1107,0.0744,0.0558,0.0348,0.0357,0.0268,0.0273,0.0278,0.028,0.0236,0.0218,0.0218,0.0218,0.0218,0.0218,0,0.0551,0.0614,0.073,0.0875,0.0998,0.1059,0.1218,0.1263,0.1339,0.1368,0.1354,0.1143,0.0946,0.074,0.0429,0.025,0.0248,0.0183,0.0233,0.024,0.0246,0.0248,0.0177,0.0176,0.0176,0.0175,0,0,0.059,0.0688,0.074,0.093,0.1031,0.116,0.1232,0.1266,0.1292,0.1277,0.1224,0.1171,0.0963,0.0728,0.0513,0.0342,0.0321,0.0297,0.0348,0.0439,0.0447,0.0312,0.0326,0,0,0,0,0]}],[{"header":{"parameterUnit":"m.s-1","parameterCategory":2,"la1":30.2991,"la2":30.254,"lo1":-89.0895,"lo2":-89.0444,"dy":0.0017,"dx":0.0017,"nx":28,"ny":28,"refTime":"2024-07-06T03:00:00:Z","depth":"4","parameterNumber":2,"parameterNumberName":"U-component_of_CURRENTS"},"data":[0,0,0,0,0,0,0,0,0,0,0,0,0,0,0,0,0,0,0,0,0,0,0,0,0,0,0,0,0,0,0,0,0,0,0,0,0,0,0,0,0,0,0,0,0,0,0,0,0,0,0,0,0,0,0,0,0,0,0.103,0.1031,0,0.1087,0.1087,0.1087,0.1124,0.1125,0.1125,0.1126,0.1125,0.1125,0.1124,0,0,0,0,0,0,0,0,0,0,0,0,0,0.1015,0.1015,0.103,0.1031,0.1032,0.1087,0.1087,0.1088,0.1124,0.1125,0.1125,0.1126,0.1126,0.1125,0.1124,0,0,0,0,0,0,0,0,0,0,0,0,0,0.1038,0.1014,0.103,0.106,0.1064,0.1087,0.1087,0.1088,0.1124,0.1125,0.1126,0.1126,0.1126,0.1125,0.1124,0.1101,0,0,0.1122,0.1121,0,0,0,0,0,0,0,0,0.1036,0.1038,0.1055,0.1058,0.1062,0.1103,0.1082,0.1091,0.1124,0.1097,0.1126,0.1127,0.1114,0.1115,0.1118,0.1101,0.1101,0.1121,0.1121,0.1121,0.112,0,0,0,0,0,0,0,0.1035,0.1036,0.1049,0.1056,0.106,0.1092,0.1095,0.1084,0.1096,0.1099,0.1103,0.1115,0.1116,0.1119,0.1119,0.1101,0.1121,0.1121,0.112,0.112,0.1145,0.1147,0,0,0,0,0,0,0.1031,0.1034,0.1047,0.1051,0.1056,0.1092,0.1095,0.1086,0.1097,0.1101,0.1114,0.1117,0.112,0.1119,0.1119,0.1142,0.1121,0.112,0.1119,0.1144,0.1146,0.1147,0,0,0,0,0,0,0.103,0.1031,0.1045,0.1048,0.1053,0.1091,0.108,0.1086,0.1116,0.111,0.1113,0.1141,0.1121,0.112,0.1135,0.1141,0.1119,0.1119,0.1143,0.1145,0.1146,0.1157,0,0,0,0,0,0,0.1029,0.1029,0.1038,0.1047,0.1053,0.1064,0.108,0.1087,0.1122,0.1126,0.1133,0.1133,0.1121,0.1136,0.1134,0.1139,0.1118,0.1141,0.1144,0.1146,0.1155,0.1159,0.1162,0,0,0,0,0,0.1028,0.1029,0.1038,0.1041,0.1057,0.1065,0.107,0.1099,0.1123,0.113,0.1147,0.1134,0.1149,0.1136,0.1133,0.1138,0.114,0.1143,0.1146,0.1154,0.1158,0.1162,0,0,0,0,0,0,0.1036,0.1033,0.1043,0.1046,0.106,0.1073,0.1096,0.1112,0.1132,0.115,0.1143,0.1143,0.1158,0.1153,0.114,0.1157,0.1144,0.1147,0.1152,0.1156,0.1159,0.1195,0.1117,0,0,0,0,0,0.1039,0.1031,0.1042,0.1047,0.1059,0.1082,0.1099,0.1116,0.1131,0.1143,0.1151,0.1162,0.1162,0.1165,0.1164,0.1169,0.1195,0.1175,0.1179,0.1182,0.1211,0.1266,0.1278,0.1156,0.1156,0.1156,0,0,0.1047,0.1044,0.1045,0.1048,0.1067,0.1066,0.1094,0.1123,0.1123,0.1137,0.1155,0.1173,0.1168,0.1176,0.1182,0.1175,0.1225,0.1185,0.1187,0.1216,0.127,0.1282,0.1293,0.1158,0.1157,0.1157,0,0,0.1047,0.1056,0.1051,0.1053,0.1079,0.1084,0.1096,0.1123,0.1141,0.1159,0.1172,0.1213,0.1202,0.1213,0.1211,0.1239,0.1242,0.123,0.1272,0.1324,0.1335,0.1345,0.137,0.1382,0.1231,0.1231,0.1231,0,0.1068,0.1043,0.1056,0.1048,0.1052,0.1088,0.1085,0.1098,0.1128,0.1156,0.1168,0.1232,0.1223,0.1251,0.1261,0.1246,0.1272,0.1248,0.1329,0.134,0.135,0.1373,0.1386,0.1232,0.1232,0.1232,0.1232,0,0.1049,0.104,0.1041,0.1027,0.1033,0.104,0.1054,0.1083,0.1121,0.1148,0.1217,0.1245,0.1292,0.1288,0.1277,0.1342,0.1335,0.1325,0.1316,0.1363,0.1384,0.1398,0.1233,0.1233,0.1233,0.1232,0,0,0.1069,0.1035,0.1038,0.1021,0.1024,0.1023,0.1037,0.1065,0.1112,0.1165,0.1237,0.1263,0.1333,0.1341,0.1356,0.1408,0.1479,0.1402,0.1404,0.1424,0.1586,0.1444,0.1444,0.1484,0.1487,0.149,0.1564,0,0.1058,0.1024,0.1012,0.0985,0.097,0.0995,0.1005,0.1043,0.1104,0.1184,0.1261,0.1334,0.133,0.139,0.1436,0.1481,0.152,0.146,0.1543,0.1546,0.1411,0.1458,0.1499,0.1574,0.1577,0.1579,0.1581,0,0.1041,0.1015,0.0987,0.096,0.0964,0.0964,0.1018,0.1032,0.1142,0.1211,0.1324,0.1394,0.1494,0.149,0.1601,0.1565,0.1582,0.1612,0.1614,0.1496,0.1429,0.1526,0.1606,0.1604,0.1602,0.16,0.1599,0,0.1029,0.0994,0.0968,0.0955,0.0942,0.0962,0.0978,0.1064,0.1116,0.1263,0.1366,0.147,0.1574,0.1623,0.1668,0.1653,0.178,0.1756,0.1643,0.1633,0.1733,0.1722,0.1835,0.1835,0.1835,0.1835,0.1835,0,0.0996,0.0971,0.0969,0.0949,0.0956,0.0958,0.102,0.1069,0.119,0.1269,0.1399,0.1504,0.1623,0.1699,0.1705,0.1708,0.1803,0.1671,0.1653,0.1731,0.1719,0.1741,0.1729,0.1838,0.1837,0.1836,0.1836,0,0.0958,0.0956,0.0924,0.0928,0.0945,0.0954,0.1033,0.1082,0.1216,0.1339,0.1401,0.1569,0.1664,0.1736,0.1822,0.1758,0.1769,0.1736,0.1812,0.1793,0.158,0.1568,0.1641,0.1637,0.1633,0.163,0.1628,0,0.0918,0.0901,0.0917,0.0923,0.0927,0.0964,0.0999,0.1094,0.1145,0.1353,0.1395,0.1569,0.1655,0.1683,0.1736,0.1739,0.171,0.1696,0.1649,0.1591,0.1566,0.1559,0.1552,0.1622,0.1621,0.162,0.1619,0,0.085,0.0879,0.087,0.0884,0.0912,0.0935,0.0984,0.1026,0.1138,0.1282,0.1385,0.1462,0.1566,0.1613,0.1626,0.1616,0.1698,0.1659,0.1666,0.1622,0.1569,0.1546,0.1543,0.1607,0.1609,0.161,0.1611,0,0.0826,0.0814,0.0831,0.0832,0.0862,0.0875,0.0919,0.0967,0.1036,0.1237,0.1254,0.1427,0.1548,0.1547,0.1547,0.1538,0.1519,0.1459,0.1476,0.149,0.1401,0.1308,0.1269,0,0,0,0,0,0.08,0.078,0.0771,0.0772,0.0795,0.082,0.0882,0.093,0.1048,0.1084,0.1167,0.1247,0.1319,0.139,0.1352,0.146,0.1506,0.1405,0.1441,0.1539,0.1553,0.1458,0,0,0,0,0,0,0.0776,0.0781,0.0753,0.0719,0.0713,0.0738,0.0781,0.0867,0.0879,0.1015,0.1059,0.1161,0.1241,0.1342,0.1335,0.1348,0.1338,0.1483,0.1479,0.1531,0.1544,0.1555,0.1462,0,0,0,0,0]},{"header":{"parameterUnit":"m.s-1","parameterCategory":2,"la1":30.2991,"la2":30.254,"lo1":-89.0895,"lo2":-89.0444,"dy":0.0017,"dx":0.0017,"nx":28,"ny":28,"refTime":"2024-07-06T03:00:00:Z","depth":"4","parameterNumber":3,"parameterNumberName":"V-component_of_CURRENTS"},"data":[0,0,0,0,0,0,0,0,0,0,0,0,0,0,0,0,0,0,0,0,0,0,0,0,0,0,0,0,0,0,0,0,0,0,0,0,0,0,0,0,0,0,0,0,0,0,0,0,0,0,0,0,0,0,0,0,0,0,0.0195,0.0195,0,0.0203,0.0203,0.0203,0.0205,0.0205,0.0205,0.0205,0.022,0.0221,0.0221,0,0,0,0,0,0,0,0,0,0,0,0,0,0.0181,0.0182,0.0195,0.0195,0.0195,0.0202,0.0203,0.0203,0.0205,0.0205,0.0205,0.0205,0.022,0.0221,0.0221,0,0,0,0,0,0,0,0,0,0,0,0,0,0.0189,0.0182,0.0195,0.0196,0.0196,0.0202,0.0203,0.0203,0.0205,0.0205,0.0205,0.0205,0.022,0.0221,0.0221,0.0232,0,0,0.0224,0.0224,0,0,0,0,0,0,0,0,0.0189,0.019,0.0196,0.0196,0.0196,0.0201,0.0203,0.0213,0.0205,0.0203,0.0205,0.0204,0.0214,0.0215,0.0219,0.0233,0.0234,0.0224,0.0225,0.0225,0.0225,0,0,0,0,0,0,0,0.0188,0.019,0.0199,0.0196,0.0196,0.0195,0.0196,0.0205,0.0211,0.0204,0.0203,0.0202,0.0214,0.0218,0.022,0.0234,0.0224,0.0225,0.0225,0.0226,0.027,0.0271,0,0,0,0,0,0,0.0185,0.0189,0.0199,0.02,0.019,0.0196,0.0197,0.0201,0.0211,0.0212,0.0202,0.0202,0.0217,0.0219,0.022,0.0265,0.0225,0.0226,0.0226,0.0269,0.027,0.0271,0,0,0,0,0,0,0.0184,0.0186,0.0199,0.0193,0.0194,0.0196,0.0201,0.0201,0.0208,0.021,0.0211,0.0208,0.0217,0.0219,0.0241,0.0264,0.0226,0.0227,0.0269,0.027,0.0271,0.0334,0,0,0,0,0,0,0.0184,0.0186,0.019,0.0193,0.0194,0.0208,0.0201,0.0202,0.0206,0.0206,0.0215,0.0216,0.0217,0.0239,0.0242,0.0265,0.0228,0.0268,0.0269,0.027,0.0331,0.0337,0.0342,0,0,0,0,0,0.0184,0.0194,0.019,0.0191,0.02,0.0208,0.021,0.021,0.0207,0.0214,0.0225,0.0216,0.0248,0.0241,0.0243,0.0267,0.0267,0.0269,0.027,0.0328,0.0336,0.0342,0,0,0,0,0,0,0.0189,0.0195,0.0191,0.0202,0.0205,0.0208,0.0215,0.0213,0.0227,0.0231,0.023,0.0232,0.026,0.0251,0.0243,0.0281,0.0254,0.0256,0.0297,0.0304,0.031,0.0306,0.0228,0,0,0,0,0,0.0191,0.0204,0.0203,0.0213,0.0214,0.0214,0.0218,0.0221,0.023,0.0235,0.0239,0.0248,0.0267,0.0275,0.0285,0.0308,0.027,0.0322,0.0327,0.0332,0.033,0.0285,0.0286,0.0276,0.0276,0.0276,0,0,0.0194,0.0201,0.0206,0.0215,0.0218,0.0237,0.0217,0.0229,0.0254,0.0236,0.027,0.0269,0.0277,0.0308,0.0318,0.0304,0.0316,0.0334,0.0338,0.0333,0.0286,0.0287,0.0288,0.0277,0.0277,0.0276,0,0,0.0212,0.0214,0.0229,0.0238,0.0247,0.0255,0.0259,0.0264,0.0275,0.0302,0.0301,0.0309,0.0333,0.0343,0.0353,0.0391,0.0347,0.0394,0.0423,0.038,0.038,0.038,0.0338,0.0334,0.0397,0.0397,0.0397,0,0.0214,0.0239,0.0234,0.0255,0.0273,0.0266,0.0294,0.0307,0.0321,0.0332,0.0321,0.0346,0.0351,0.0389,0.0406,0.0405,0.0368,0.0402,0.0387,0.0386,0.0384,0.0341,0.0335,0.04,0.04,0.04,0.0399,0,0.0244,0.0268,0.028,0.0312,0.0327,0.0352,0.0368,0.0387,0.0395,0.0397,0.0421,0.0418,0.0427,0.0435,0.0439,0.0443,0.0417,0.0399,0.037,0.0389,0.0343,0.0335,0.0405,0.0404,0.0403,0.0402,0,0,0.0246,0.0293,0.0299,0.033,0.0365,0.0384,0.0431,0.0464,0.0487,0.0487,0.0507,0.053,0.05,0.0507,0.0501,0.047,0.0437,0.0435,0.0432,0.0394,0.0336,0.0333,0.0324,0.0412,0.0411,0.041,0.031,0,0.0275,0.0333,0.035,0.0415,0.0449,0.0469,0.0513,0.054,0.0549,0.0563,0.0549,0.0563,0.0538,0.0541,0.0507,0.0456,0.0419,0.0465,0.0323,0.0319,0.0314,0.0317,0.0407,0.0304,0.0303,0.0301,0.03,0,0.0301,0.0344,0.041,0.0482,0.0496,0.0535,0.0599,0.0635,0.065,0.0653,0.0643,0.0616,0.0595,0.056,0.046,0.0487,0.0417,0.0366,0.036,0.0328,0.0302,0.0279,0.0286,0.0287,0.0288,0.0289,0.029,0,0.0317,0.0389,0.0451,0.0475,0.0547,0.0587,0.0628,0.066,0.0696,0.0703,0.0708,0.066,0.064,0.0543,0.0433,0.0443,0.0299,0.0297,0.0226,0.0224,0.0228,0.023,0.0213,0.0213,0.0213,0.0214,0.0214,0,0.0349,0.04,0.0466,0.0502,0.058,0.0617,0.0688,0.0717,0.0752,0.0777,0.0749,0.0738,0.063,0.0536,0.0433,0.03,0.029,0.0227,0.0198,0.0259,0.0265,0.0223,0.0225,0.021,0.0211,0.0212,0.0212,0,0.0361,0.0403,0.0478,0.056,0.0592,0.0648,0.0739,0.0779,0.0809,0.084,0.0844,0.079,0.0674,0.055,0.0386,0.0307,0.0178,0.0131,0.0199,0.0176,0.0134,0.0141,0.0054,0.0053,0.0052,0.0052,0.0051,0,0.0375,0.0414,0.0513,0.0557,0.06,0.0687,0.0744,0.0807,0.0838,0.0857,0.0859,0.078,0.0722,0.0487,0.0358,0.0163,0.0139,0.007,0.0115,0.0137,0.0117,0.0125,0.0133,0.005,0.005,0.0049,0.0049,0,0.0398,0.043,0.0487,0.0577,0.0649,0.073,0.0805,0.0835,0.0887,0.0912,0.0862,0.0768,0.0641,0.0477,0.0326,0.0185,0.0117,0.0061,0.0063,0.0104,0.013,0.0114,0.0122,0.0046,0.0047,0.0047,0.0047,0,0.0408,0.0442,0.0509,0.0592,0.0677,0.0746,0.0794,0.0827,0.0869,0.0882,0.085,0.0742,0.0675,0.0486,0.0337,0.021,0.0193,0.0154,0.0151,0.0152,0.0218,0.0268,0.0198,0,0,0,0,0,0.0416,0.045,0.0519,0.0606,0.0691,0.0742,0.082,0.0855,0.0896,0.0862,0.0863,0.0745,0.0564,0.0481,0.0354,0.0327,0.017,0.0174,0.0122,0.0031,0.0034,0.0096,0,0,0,0,0,0,0.0417,0.0476,0.051,0.0606,0.0664,0.0757,0.0808,0.0836,0.0814,0.083,0.0728,0.0706,0.052,0.0629,0.0346,0.0312,0.026,0.0096,0.0093,0.0029,0.0032,0.0034,0.0099,0,0,0,0,0]}]]